Location: Le Domaine
(47.0333°N, 76.5361°W)
Time: 14:01:11
(UTC-05:00)

Vanguard 2 - All Passes

Search period start: 12 November 2019 00:00
Search period end: 22 November 2019 00:00
Orbit: 554 x 2937 km, 32.9° (Epoch: 12 November)

Date Brightness Start Highest point End Pass type
(mag) Time Alt. Az. Time Alt. Az. Time Alt. Az.
12 Nov - 11:51:39 10° SSW 11:53:41 13° S 11:55:33 10° SSE daylight
13 Nov - 10:02:09 10° S 10:03:46 11° S 10:05:14 10° SSE daylight
13 Nov - 12:09:01 10° SSW 12:11:21 14° S 12:13:28 10° SSE daylight
14 Nov - 10:18:24 10° SSW 10:21:30 14° S 10:24:07 10° SE daylight
14 Nov - 12:26:41 10° SW 12:29:00 13° S 12:31:06 10° SSE daylight
15 Nov - 08:29:21 10° S 08:31:13 11° SSE 08:32:55 10° SSE daylight
15 Nov - 10:35:25 10° SW 10:39:13 16° S 10:42:17 10° SE daylight
15 Nov - 12:44:40 10° SW 12:46:37 12° SSW 12:48:25 10° SSE daylight
16 Nov - 08:44:46 10° SSW 08:49:00 15° SSE 08:52:25 10° SE daylight
16 Nov - 10:52:48 10° SW 10:56:54 18° S 11:00:11 10° SE daylight
16 Nov - 13:03:17 10° SSW 13:04:12 11° SSW 13:05:04 10° S daylight
17 Nov - 09:01:21 10° SSW 09:06:46 18° S 09:10:52 10° SE daylight
17 Nov - 11:10:24 10° SW 11:14:34 18° S 11:17:53 10° SE daylight
18 Nov - 07:11:12 10° S 07:16:03 14° SSE 07:20:01 10° SE daylight
18 Nov - 09:18:24 10° SW 09:24:31 21° S 09:28:58 10° SE daylight
18 Nov - 11:28:13 10° SW 11:32:12 18° SSW 11:35:23 10° SSE daylight
19 Nov - 07:27:05 10° SSW 07:33:51 18° SSE 07:38:57 10° SE daylight
19 Nov - 09:35:46 10° SW 09:42:15 24° S 09:46:51 10° SE daylight
19 Nov - 11:46:14 10° SW 11:49:47 16° SSW 11:52:42 10° SSE daylight
20 Nov - 05:38:49 10° S 05:42:38 12° SSE 05:46:00 10° SE visible
20 Nov - 07:43:40 10° SSW 07:51:38 23° SSE 07:57:19 10° ESE daylight
20 Nov - 09:53:21 10° SW 09:59:57 25° S 10:04:36 10° SE daylight
20 Nov - 12:04:34 10° SW 12:07:17 13° SSW 12:09:39 10° S daylight
21 Nov - 05:53:12 10° S 06:00:24 17° SSE 06:06:08 10° ESE visible
21 Nov - 08:00:41 10° SW 08:09:24 26° S 08:15:24 10° ESE daylight
21 Nov - 10:11:04 10° WSW 10:17:36 25° SSW 10:22:12 10° SE daylight
21 Nov - 12:23:57 10° SW 12:24:44 10° SSW 12:25:29 10° SSW daylight
